AMOS-17

Last updated on Thu Nov 21 2024 00:02:44 GMT+0000 (Coordinated Universal Time)

1 44479U 19050A 24324.58391296 .00000111 00000+0 00000+0 0 9992 2 44479 0.0174 23.1536 0002247 216.8459 46.3243 1.00271383 19425
UTC large
Height (km)
Speed (km/s)
/
Latitude / Longitude
Inclination (degrees)
Orbital Period (minutes)
Azimuth
Elevation
Range (km)
Doppler Factor

Next 0 passes for location: London (51.5072 / 0.1276)

Sorry there are no passes over London.